This is the latest recevied weather packets stored in our database for station/object KI5RAB. If no packets are shown the sender has not sent any weather packets the latest 10 day(s).
| Time | Temp. | Humidity | Pressure | Rain* | Wind** | Luminosity | Snow |
|---|---|---|---|---|---|---|---|
| 1788391784 | 37.78° C | 39% | 1014.6 hPa | 0 mm | - | 106 W/m² | - |
| 1788391479 | 37.78° C | 39% | 1014.2 hPa | 0 mm | - | 117 W/m² | - |
| 1788391183 | 37.78° C | 40% | 1014.3 hPa | 0 mm | - | 49 W/m² | - |
| 1788390873 | 37.78° C | 39% | 1014.3 hPa | 0 mm | - | 125 W/m² | - |
| 1788390568 | 37.78° C | 38% | 1014.6 hPa | 0 mm | - | 155 W/m² | - |
| 1788390267 | 38.33° C | 37% | 1014.5 hPa | 0 mm | - | 170 W/m² | - |
| 1788389962 | 38.89° C | 37% | 1014.5 hPa | 0 mm | - | 180 W/m² | - |
| 1788389657 | 38.89° C | 37% | 1014.5 hPa | 0 mm | - | 197 W/m² | - |
| 1788389356 | 38.89° C | 37% | 1014.6 hPa | 0 mm | - | 213 W/m² | - |
| 1788389055 | 38.33° C | 36% | 1014.4 hPa | 0 mm | - | 224 W/m² | - |
| 1788388752 | 38.33° C | 36% | 1014.5 hPa | 0 mm | - | 241 W/m² | - |
| 1788388447 | 37.78° C | 37% | 1014.7 hPa | 0 mm | - | 254 W/m² | - |
| 1788388141 | 38.89° C | 38% | 1014.5 hPa | 0 mm | - | 274 W/m² | - |
| 1788387840 | 38.89° C | 37% | 1014.5 hPa | 0 mm | - | 282 W/m² | - |
| 1788387539 | 38.33° C | 36% | 1014.7 hPa | 0 mm | - | 298 W/m² | - |
| 1788387239 | 38.33° C | 35% | 1014.6 hPa | 0 mm | - | 315 W/m² | - |
| 1788386934 | 38.33° C | 37% | 1014.6 hPa | 0 mm | - | 328 W/m² | - |
| 1788386634 | 38.89° C | 38% | 1014.7 hPa | 0 mm | - | 345 W/m² | - |
| 1788386329 | 38.89° C | 37% | 1014.7 hPa | 0 mm | - | 361 W/m² | - |
| 1788386024 | 38.89° C | 38% | 1014.9 hPa | 0 mm | - | 373 W/m² | - |
| 1788385721 | 38.89° C | 37% | 1014.9 hPa | 0 mm | - | 392 W/m² | - |
| 1788385419 | 38.89° C | 38% | 1014.9 hPa | 0 mm | - | 404 W/m² | - |
| 1788385114 | 38.33° C | 38% | 1014.8 hPa | 0 mm | - | 420 W/m² | - |
| 1788384811 | 37.78° C | 38% | 1014.9 hPa | 0 mm | - | 433 W/m² | - |
| 1788384508 | 37.22° C | 38% | 1015 hPa | 0 mm | - | 449 W/m² | - |
* Rain latest hour (hover to see other rain measurements)
** Current wind speed in m/s (hover to see current wind gust speed)